Weather History for Massena, NY

Change the Weather History Date:

Monday, May 6, 2013

  Actual Average Record
Temperature  
Mean Temperature 61 °F 52 °F  
Max Temperature 79 °F 64 °F 82 °F (1960)
Min Temperature 43 °F 40 °F 24 °F (1968)
Degree Days  
Heating Degree Days 4    
Cooling Degree Days 0 0  
Month to date cooling degree days 0 0  
Year to date cooling degree days 0 1  
Growing Degree Days 12 (Base 50)    
Moisture  
Dew Point 39 °F    
Average Humidity 57    
Maximum Humidity 92    
Minimum Humidity 21    
Precipitation  
Precipitation 0.00 in 0.10 in 0.84 in (1991)
Month to date precipitation 0.00 0.58  
Year to date precipitation 4.50 9.44  
Sea Level Pressure  
Sea Level Pressure 30.11 in    
Wind  
Wind Speed 5 mph (WSW)    
Max Wind Speed 15 mph    
Max Gust Speed 18 mph    
Visibility 10 miles    
Events      
T = Trace of Precipitation, MM = Missing Value Source: NWS Daily Summary

Daily Weather History Graph

Daily Weather History Graph

Search for Another Location

Airport:

Trip Planner

Search our weather history database for the weather conditions in past years. The results will help you decide how hot, cold, wet, or windy it might be!

Date:

Astronomy

May. 06, 2013 Rise Set
Actual Time 5:41 AM EDT 8:11 PM EDT
Civil Twilight 5:08 AM EDT 8:44 PM EDT
Nautical Twilight 4:27 AM EDT 9:25 PM EDT
Astronomical Twilight 3:40 AM EDT 10:13 PM EDT
Moon 3:50 AM EDT (5/6) 5:01 PM EDT (5/6)
Length of Visible Light 15h 35m
Length of Day
14h 29m
Waning Crescent, 11% of the Moon is Illuminated
May 6
Waning Crescent
May 9
New
May 18
First Quarter
May 25
Full
May 31
Last Quarter

Hourly Weather History & Observations

Time (EDT) Temp. Dew Point Humidity Pressure Visibility Wind Dir Wind Speed Gust Speed Precip Events Conditions
12:53 AM 48.0 °F 43.0 °F 83% 30.12 in 10.0 mi WSW 4.6 mph - N/A   Clear
1:53 AM 53.1 °F 43.0 °F 69% 30.12 in 10.0 mi SSW 6.9 mph - N/A   Clear
2:53 AM 53.1 °F 43.0 °F 69% 30.13 in 10.0 mi Calm Calm - N/A   Mostly Cloudy
3:53 AM 48.9 °F 44.1 °F 83% 30.13 in 10.0 mi Calm Calm - N/A   Clear
4:53 AM 46.9 °F 43.0 °F 86% 30.13 in 10.0 mi Calm Calm - N/A   Clear
5:53 AM 45.0 °F 43.0 °F 93% 30.15 in 10.0 mi Calm Calm - N/A   Clear
6:53 AM 50.0 °F 45.0 °F 83% 30.16 in 10.0 mi Calm Calm - N/A   Clear
7:53 AM 59.0 °F 39.0 °F 48% 30.17 in 10.0 mi SW 5.8 mph - N/A   Clear
8:53 AM 64.9 °F 37.0 °F 36% 30.18 in 10.0 mi WSW 10.4 mph 18.4 mph N/A   Clear
9:53 AM 69.1 °F 36.0 °F 30% 30.18 in 10.0 mi West 12.7 mph 18.4 mph N/A   Clear
10:53 AM 71.1 °F 37.9 °F 30% 30.17 in 10.0 mi West 8.1 mph - N/A   Clear
11:53 AM 73.0 °F 37.9 °F 28% 30.16 in 10.0 mi West 8.1 mph - N/A   Clear
12:53 PM 75.0 °F 39.9 °F 28% 30.14 in 10.0 mi SW 6.9 mph - N/A   Clear
1:53 PM 75.9 °F 37.9 °F 25% 30.11 in 10.0 mi West 6.9 mph - N/A   Clear
2:53 PM 78.1 °F 39.9 °F 25% 30.09 in 10.0 mi WNW 9.2 mph - N/A   Clear
3:53 PM 78.1 °F 39.0 °F 25% 30.06 in 10.0 mi NW 6.9 mph - N/A   Clear
4:53 PM 78.1 °F 36.0 °F 22% 30.04 in 10.0 mi WNW 10.4 mph - N/A   Clear
5:53 PM 77.0 °F 35.1 °F 22% 30.04 in 10.0 mi WNW 6.9 mph - N/A   Clear
6:53 PM 75.0 °F 35.1 °F 23% 30.02 in 10.0 mi West 8.1 mph - N/A   Clear
7:53 PM 71.1 °F 33.1 °F 25% 30.02 in 10.0 mi Calm Calm - N/A   Clear
8:53 PM 57.9 °F 39.9 °F 51% 30.04 in 10.0 mi Calm Calm - N/A   Clear
9:53 PM 57.0 °F 39.9 °F 53% 30.05 in 10.0 mi Calm Calm - N/A   Clear
10:53 PM 51.1 °F 39.9 °F 66% 30.06 in 10.0 mi SW 5.8 mph - N/A   Clear
11:53 PM 51.1 °F 39.9 °F 66% 30.07 in 10.0 mi SW 5.8 mph - N/A   Clear